AST,Max TemperatureF,Mean TemperatureF,Min TemperatureF,Max Dew PointF,MeanDew PointF,Min DewpointF,Max Humidity, Mean Humidity, Min Humidity, Max Sea Level PressureIn, Mean Sea Level PressureIn, Min Sea Level PressureIn, Max VisibilityMiles, Mean VisibilityMiles, Min VisibilityMiles, Max Wind SpeedMPH, Mean Wind SpeedMPH, Max Gust SpeedMPH,PrecipitationIn, CloudCover, Events, WindDirDegrees
2011-12-1,69,63,57,52,47,45,67,57,46,30.15,30.09,30.04,,,,13,10,,0.00,,,302
2011-12-2,73,66,59,54,50,45,68,60,46,30.15,30.10,30.06,6,6,6,21,9,,0.00,,,302
2011-12-3,75,67,59,55,51,48,77,61,41,30.09,30.05,30.01,6,6,6,17,13,,0.00,,,313
2011-12-4,75,68,60,54,51,46,77,59,36,30.12,30.07,30.04,,,,22,12,29,0.00,,,313
2011-12-5,73,66,59,54,44,28,72,51,29,30.18,30.12,30.04,,,,15,11,,0.00,,,308
2011-12-6,69,63,57,46,40,30,55,43,34,30.15,30.10,30.06,,,,100,9,,0.00,,,294
2011-12-7,71,65,59,45,40,30,59,43,22,30.15,30.10,30.06,,,,12,7,,0.00,,,300
2011-12-8,73,65,57,57,49,39,77,57,38,30.18,30.12,30.09,6,5,5,14,8,,0.00,,,302
2011-12-9,75,68,60,59,51,46,73,57,41,30.18,30.13,30.09,6,5,4,10,7,,0.00,,,324
2011-12-10,73,68,62,61,53,52,78,62,47,30.18,30.13,30.09,6,6,5,9,4,,0.00,1,,354
2011-12-11,73,66,60,59,52,45,83,60,43,30.18,30.12,30.06,6,4,3,14,6,,0.00,,,305
2011-12-12,68,64,59,57,53,48,82,71,56,30.15,30.11,30.06,5,3,2,18,13,30,0.00,1,,310
2011-12-13,71,65,59,57,53,48,82,67,53,30.18,30.13,30.09,6,5,4,15,11,,0.00,1,,311
2011-12-14,73,65,57,59,54,50,82,69,50,30.21,30.16,30.12,6,5,4,12,8,,0.00,,,319
2011-12-15,71,64,57,57,55,54,88,71,56,30.21,30.13,30.09,6,4,2,9,4,,0.00,,,301
2011-12-16,73,65,57,57,54,41,88,70,31,30.15,30.07,30.01,6,4,2,9,3,,0.00,1,,189
2011-12-17,75,66,57,55,50,41,88,61,31,30.09,30.05,29.98,6,4,2,10,4,,0.00,,,204
2011-12-18,75,67,59,59,54,39,82,65,40,30.18,30.11,30.04,6,4,2,14,6,,0.00,1,,302
2011-12-19,75,68,62,57,54,46,82,65,38,30.21,30.15,30.09,6,4,3,15,10,,0.00,1,,311
2011-12-20,75,68,60,63,58,54,83,72,57,30.21,30.15,30.12,6,5,3,14,8,,0.00,1,,331
2011-12-21,75,70,64,61,58,54,83,68,47,30.21,30.17,30.12,6,6,6,14,7,,0.00,1,,350
2011-12-22,75,70,64,59,57,55,78,67,53,30.24,30.16,30.09,6,6,4,10,8,,0.00,1,,347
2011-12-23,73,66,60,57,54,43,82,64,33,30.18,30.10,30.06,6,5,4,9,3,,0.00,,,35
2011-12-24,77,68,59,57,51,43,82,62,29,30.12,30.04,29.98,6,5,4,10,4,,0.00,,,179
2011-12-25,78,68,59,57,52,43,88,62,28,30.06,30.02,29.98,6,4,3,10,5,,0.00,,,189
2011-12-26,75,67,59,63,56,46,83,68,44,30.12,30.06,30.01,6,5,4,16,7,,0.00,,,305
2011-12-27,71,66,62,57,50,43,73,56,38,30.18,30.12,30.09,,,,17,12,29,0.00,,,319
2011-12-28,68,64,59,48,44,37,63,50,39,30.21,30.15,30.12,,,,15,10,25,0.00,,,310
2011-12-29,69,63,57,46,38,27,67,43,23,30.27,30.19,30.15,,,,12,7,,0.00,,,294
2011-12-30,71,64,57,59,51,43,77,63,49,30.27,30.20,30.15,6,5,4,12,7,,0.00,1,,306
2011-12-31,73,66,60,59,57,54,88,71,50,30.27,30.18,30.12,6,5,4,13,6,,0.00,,,342